Waarnemingen

Advertentie
Mijn weer
Nancy/Essey, Frankrijk (7180): temperatuur & dauwpunt: 20.05.2017 16:00:00 - 26.05.2017 16:00:00 (CEST)Nancy/Essey, Frankrijk (7180): temperatuur 5cm: 20.05.2017 16:00:00 - 26.05.2017 16:00:00 (CEST)Nancy/Essey, Frankrijk (7180): temperatuur -20cm & temperatuur -100cm: 20.05.2017 16:00:00 - 26.05.2017 16:00:00 (CEST)Nancy/Essey, Frankrijk (7180): windsnelheid & windstoten: 20.05.2017 16:00:00 - 26.05.2017 16:00:00 (CEST)Nancy/Essey, Frankrijk (7180): windrichting: 20.05.2017 16:00:00 - 26.05.2017 16:00:00 (CEST)Nancy/Essey, Frankrijk (7180): luchtdruk: 20.05.2017 16:00:00 - 26.05.2017 16:00:00 (CEST)Nancy/Essey, Frankrijk (7180): zicht: 20.05.2017 16:00:00 - 26.05.2017 16:00:00 (CEST)Nancy/Essey, Frankrijk (7180): Zonneschijnduur: 20.05.2017 16:00:00 - 26.05.2017 16:00:00 (CEST)Nancy/Essey, Frankrijk (7180): neerslag: 20.05.2017 16:00:00 - 26.05.2017 16:00:00 (CEST)
Datum & Tijd tt [°C] td [°C] tt 5cm [°C] tt -20cm [°C] tt -100cm [°C] ff [km/u] ff [kn] fx [km/u] fx [kn] dd ppp [hPa] vv [km] sd [min] rr [mm]
26.05.2017 16:00:00 26,1 11,4 30,8 17,6 13,6 23 13 40 22 ONO 1016,6 20 60 0,0
26.05.2017 15:00:00 25,3 11,5 30,1 17,4 13,6 24 13 47 25 ONO 1017,5 20 60 0,0
26.05.2017 14:00:00 25,0 10,5 29,3 17,2 13,6 29 15 44 24 ONO 1018,0 49 60 0,0
26.05.2017 13:00:00 24,3 10,6 28,2 17,1 13,6 27 15 54 29 O 1018,6 56 60 0,0
26.05.2017 12:00:00 23,4 10,4 27,2 17,1 13,6 29 16 49 26 O 1019,0 60 60 0,0
26.05.2017 11:00:00 22,1 11,5 25,5 17,1 13,6 26 14 46 25 ONO 1019,3 60 60 0,0
26.05.2017 10:00:00 20,1 11,8 23,1 17,1 13,6 17 9 28 15 ONO 1019,8 60 60 0,0
26.05.2017 09:00:00 18,2 11,5 19,8 17,2 13,6 13 7 25 14 NO 1020,0 60 60 0,0
26.05.2017 08:00:00 15,4 10,8 15,9 17,4 13,6 10 6 17 9 NO 1020,4 52 60 0,0
26.05.2017 07:00:00 13,4 10,4 8,0 17,5 13,5 6 3 12 6 ONO 1020,3 43 60 0,0
26.05.2017 06:00:00 10,7 9,1 7,1 17,7 13,5 6 3 13 7 ONO 1020,4 44 6 0,0
26.05.2017 05:00:00 11,4 9,5 6,9 17,9 13,6 7 4 18 10 O 1020,4 45 0 0,0
26.05.2017 04:00:00 12,4 9,9 10,0 18,0 13,5 14 7 19 10 NO 1020,4 57 0 0,0
26.05.2017 03:00:00 12,8 10,0 9,2 18,1 13,5 15 8 19 11 NO 1020,2 55 0 0,0
26.05.2017 02:00:00 12,9 9,5 7,3 18,3 13,5 7 4 10 5 NO 1020,4 56 0 0,0
26.05.2017 01:00:00 14,7 9,9 9,7 18,4 13,5 3 2 16 9 ONO 1020,6 57 0 0,0
26.05.2017 00:00:00 15,8 10,3 12,3 18,5 13,5 10 5 26 14 NO 1020,5 60 0 0,0
25.05.2017 23:00:00 18,2 10,1 14,5 18,5 13,5 16 9 29 16 O 1020,5 60 0 0,0
25.05.2017 22:00:00 17,1 10,9 14,7 18,5 13,5 14 7 19 10 NO 1020,4 60 0 0,0
25.05.2017 21:00:00 19,8 11,3 18,1 18,5 13,5 13 7 29 16 ONO 1019,8 60 49 0,0
25.05.2017 20:00:00 22,5 10,9 23,8 18,3 13,5 18 10 32 18 ONO 1019,6 50 60 0,0
25.05.2017 19:00:00 23,5 10,9 26,5 18,2 13,5 17 9 35 19 NO 1019,7 52 60 0,0
25.05.2017 18:00:00 23,8 10,8 27,7 17,9 13,5 21 11 35 19 NO 1020,0 45 60 0,0
25.05.2017 17:00:00 24,0 10,3 28,3 17,7 13,5 21 11 40 21 NO 1020,3 60 60 0,0
25.05.2017 16:00:00 23,9 11,6 27,8 17,4 13,4 19 10 41 22 ONO 1020,6 60 60 0,0
25.05.2017 15:00:00 23,3 11,0 28,0 17,2 13,4 21 11 38 21 ONO 1021,2 58 60 0,0
25.05.2017 14:00:00 22,3 11,7 23,0 17,1 13,4 18 10 33 18 NO 1021,7 57 58 0,0
25.05.2017 13:00:00 21,2 12,6 23,5 17,0 13,4 16 9 29 16 NNO 1022,3 19 43 0,0
25.05.2017 12:00:00 20,9 11,8 21,5 16,9 13,4 18 10 28 15 NO 1022,6 20 53 0,0
25.05.2017 11:00:00 19,0 12,7 21,7 16,9 13,4 10 5 22 12 NNO 1022,8 19 44 0,0
25.05.2017 10:00:00 18,6 13,2 21,6 17,0 13,4 10 5 29 16 NNO 1022,9 18 58 0,0
25.05.2017 09:00:00 17,5 12,6 20,2 17,1 13,4 18 10 27 15 NO 1022,8 19 60 0,0
25.05.2017 08:00:00 16,3 12,5 16,9 17,2 13,4 13 7 22 12 NNO 1022,6 19 60 0,0
25.05.2017 07:00:00 14,4 11,4 10,8 17,4 13,4 1 1 11 6 Z 1022,6 13 47 0,0
25.05.2017 06:00:00 13,4 11,1 8,2 17,5 13,4 11 6 14 7 NNO 1022,7 15 0 0,0
25.05.2017 05:00:00 13,4 10,9 7,5 17,7 13,4 10 6 14 8 NNO 1022,8 19 0 0,0
25.05.2017 04:00:00 13,5 11,0 7,9 17,8 13,4 1 1 6 3 NNW 1022,8 20 0 0,0
25.05.2017 03:00:00 13,1 11,0 8,9 17,9 13,4 2 1 6 3 ONO 1023,1 30 0 0,0
25.05.2017 02:00:00 14,5 11,5 10,1 18,0 13,4 4 2 10 6 NNO 1023,3 36 0 0,0
25.05.2017 01:00:00 15,1 11,3 10,5 18,1 13,3 3 1 10 5 OZO 1023,5 57 0 0,0
25.05.2017 00:00:00 15,3 12,1 12,7 18,1 13,3 9 5 13 7 NO 1023,8 60 0 0,0
24.05.2017 23:00:00 16,9 12,4 14,5 18,2 13,3 10 6 14 8 NO 1023,8 60 0 0,0
24.05.2017 22:00:00 19,6 13,5 17,5 18,2 13,3 4 2 8 4 NO 1023,0 60 0 0,0
24.05.2017 21:00:00 20,6 12,0 18,3 18,1 13,3 4 2 15 8 N 1022,7 60 12 0,0
24.05.2017 20:00:00 22,2 12,2 23,2 18,0 13,3 10 6 19 10 N 1022,5 60 46 0,0
24.05.2017 19:00:00 22,9 11,3 23,2 17,8 13,3 9 5 26 14 N 1022,3 60 12 0,0
24.05.2017 18:00:00 23,2 11,9 24,8 17,6 13,3 11 6 37 20 N 1022,6 39 29 0,0
24.05.2017 17:00:00 23,1 11,2 25,0 17,4 13,3 9 5 28 15 NNW 1022,8 58 36 0,0
24.05.2017 16:00:00 23,3 11,7 24,2 17,1 13,3 15 8 24 13 N 1023,0 37 40 0,0
24.05.2017 15:00:00 23,1 10,5 23,8 17,0 13,3 9 5 23 13 WNW 1023,4 60 53 0,0
24.05.2017 14:00:00 21,9 12,2 25,1 16,8 13,3 14 8 26 14 NO 1023,9 60 46 0,0
24.05.2017 13:00:00 20,9 10,1 23,8 16,6 13,3 4 2 23 13 W 1024,6 29 31 0,0
24.05.2017 12:00:00 20,7 10,5 26,0 16,6 13,3 6 3 17 9 N 1025,0 60 58 0,0
24.05.2017 11:00:00 20,0 9,3 26,9 16,6 13,2 8 4 17 9 ZO 1025,3 58 60 0,0
24.05.2017 10:00:00 19,0 9,7 21,8 16,6 13,2 5 3 10 5 OZO 1025,3 42 58 0,0
24.05.2017 09:00:00 17,3 10,4 17,8 16,7 13,2 7 4 11 6 NO 1025,6 47 25 0,0
24.05.2017 08:00:00 15,7 11,7 13,9 16,8 13,2 3 1 5 3 N 1025,2 20 57 0,0
24.05.2017 07:00:00 12,5 10,9 10,1 16,9 13,2 1 1 5 3 O 1025,0 31 1 0,0
24.05.2017 06:00:00 10,4 9,5 6,0 17,1 13,2 3 2 5 3 O 1025,0 29 0 0,0
24.05.2017 05:00:00 10,1 8,7 6,1 17,3 13,2 1 1 4 2 ZZO 1024,8 23 0 0,0
24.05.2017 04:00:00 10,9 9,7 6,5 17,4 13,2 3 1 6 3 O 1024,6 51 0 0,0
24.05.2017 03:00:00 11,9 10,0 8,2 17,5 13,2 4 2 9 5 OZO 1024,2 27 0 0,0
24.05.2017 02:00:00 13,4 10,9 9,1 17,6 13,2 4 2 10 5 ZZO 1023,9 33 0 0,0
24.05.2017 01:00:00 16,2 12,2 13,5 17,7 13,2 5 3 14 8 WNW 1023,5 41 0 0,0
24.05.2017 00:00:00 17,4 12,1 16,0 17,7 13,1 11 6 21 11 WNW 1023,1 58 0 0,0
23.05.2017 23:00:00 18,4 11,7 16,7 17,8 13,2 10 5 21 12 WNW 1022,7 60 0 0,0
23.05.2017 22:00:00 19,1 11,6 17,4 17,8 13,2 11 6 29 16 NW 1022,2 59 0 0,0
23.05.2017 21:00:00 20,5 10,9 19,3 17,7 13,2 15 8 37 20 WNW 1021,2 58 43 0,0
23.05.2017 20:00:00 22,1 11,5 23,2 17,6 13,2 20 11 37 20 NW 1020,5 60 60 0,0
23.05.2017 19:00:00 23,5 12,5 25,9 17,5 13,2 19 10 36 19 NW 1020,0 60 60 0,0
23.05.2017 18:00:00 24,1 11,8 27,0 17,3 13,1 21 11 46 25 W 1019,8 60 60 0,0
23.05.2017 17:00:00 23,9 12,8 25,6 17,1 13,1 25 14 45 24 NW 1019,6 51 55 0,0
23.05.2017 16:00:00 24,9 12,8 24,2 16,9 13,1 21 11 42 23 WNW 1019,0 60 31 0,0
23.05.2017 15:00:00 24,9 12,5 26,2 16,6 13,1 19 10 38 21 WNW 1018,9 56 40 0,0
23.05.2017 14:00:00 25,1 12,0 26,6 16,5 13,1 12 7 33 18 WNW 1019,0 50 51 0,0
23.05.2017 13:00:00 25,2 13,1 24,9 16,3 13,1 14 8 31 17 WZW 1018,9 60 47 0,0
23.05.2017 12:00:00 24,2 11,5 27,3 16,2 13,1 8 5 22 12 W 1019,1 55 60 0,0
23.05.2017 11:00:00 23,1 12,1 27,7 16,2 13,1 10 5 21 11 NNW 1018,8 58 60 0,0
23.05.2017 10:00:00 21,9 12,4 26,4 16,3 13,1 4 2 16 9 NNW 1018,8 55 60 0,0
23.05.2017 09:00:00 19,9 12,9 21,9 16,4 13,1 1 1 6 3 O 1018,8 28 60 0,0
23.05.2017 08:00:00 16,9 13,0 13,8 16,5 13,1 4 2 6 4 ZZO 1018,6 25 60 0,0
23.05.2017 07:00:00 12,1 11,5 7,5 16,6 13,1 3 2 5 3 ZO 1018,4 14 19 0,0
23.05.2017 06:00:00 10,7 10,1 6,5 16,8 13,0 5 3 6 3 OZO 1018,1 17 0 0,0
23.05.2017 05:00:00 11,2 10,4 7,0 16,9 13,1 4 2 6 4 OZO 1017,6 20 0 0,0
23.05.2017 04:00:00 12,3 10,9 8,1 17,0 13,0 3 2 7 4 OZO 1017,1 22 0 0,0
23.05.2017 03:00:00 13,0 11,2 9,5 17,1 13,0 5 3 6 4 ZO 1017,0 29 0 0,0
23.05.2017 02:00:00 14,2 11,2 11,2 17,2 13,1 2 1 5 3 NO 1017,0 51 0 0,0
23.05.2017 01:00:00 14,8 10,4 11,3 17,3 13,0 2 1 7 4 ZO 1017,1 60 0 0,0
23.05.2017 00:00:00 15,6 10,8 11,8 17,3 13,1 4 2 5 3 OZO 1016,9 60 0 0,0
22.05.2017 23:00:00 17,0 10,6 12,3 17,3 13,1 2 1 7 4 ONO 1016,6 60 0 0,0
22.05.2017 22:00:00 18,9 10,2 13,7 17,3 13,0 3 1 13 7 Z 1016,3 20 0 0,0
22.05.2017 21:00:00 19,4 11,2 17,3 17,2 13,1 10 5 14 8 NNO 1015,5 60 0 0,0
22.05.2017 20:00:00 21,7 12,3 20,9 17,0 13,1 8 4 14 7 ONO 1015,1 60 1 0,0
22.05.2017 19:00:00 24,6 11,2 26,7 16,8 13,0 8 4 18 10 ZZO 1015,0 51 58 0,0
22.05.2017 18:00:00 25,1 8,6 30,1 16,5 13,0 8 5 19 11 ZZW 1015,1 43 60 0,0
22.05.2017 17:00:00 25,0 8,9 30,0 16,2 13,1 7 4 29 15 Z 1015,4 20 60 0,0
22.05.2017 16:00:00 24,2 10,1 30,9 15,8 13,0 6 4 22 12 ONO 1016,1 55 60 0,0
22.05.2017 15:00:00 23,6 9,2 29,3 15,5 13,0 5 3 29 15 ZO 1016,4 60 60 0,0
22.05.2017 14:00:00 23,2 11,3 27,9 15,3 13,0 11 6 31 17 ZZO 1017,0 59 60 0,0
22.05.2017 13:00:00 21,9 11,3 26,5 15,2 13,0 10 5 25 13 ONO 1017,3 59 60 0,0
22.05.2017 12:00:00 21,1 11,4 25,5 15,1 13,0 11 6 37 20 O 1017,8 60 60 0,0
22.05.2017 11:00:00 19,3 10,8 24,7 15,1 13,0 11 6 22 12 ONO 1018,4 53 60 0,0
22.05.2017 10:00:00 17,7 11,0 21,1 15,2 13,0 6 4 16 9 ONO 1018,9 20 60 0,0
22.05.2017 09:00:00 15,0 9,6 18,2 15,3 13,0 7 4 13 7 NO 1019,1 60 60 0,0
22.05.2017 08:00:00 13,0 8,7 13,0 15,4 13,0 6 3 10 6 NO 1019,5 47 60 0,0
22.05.2017 07:00:00 8,9 7,2 2,8 15,5 13,0 1 1 4 2 OZO 1019,9 28 58 0,0
22.05.2017 06:00:00 6,4 5,7 2,1 15,7 13,0 3 2 6 4 OZO 1020,1 38 0 0,0
22.05.2017 05:00:00 6,8 5,7 2,6 15,9 13,0 2 1 5 3 ZO 1020,1 51 0 0,0
22.05.2017 04:00:00 7,3 5,8 3,1 16,0 13,0 3 1 4 2 ZO 1020,4 60 0 0,0
22.05.2017 03:00:00 9,9 6,8 5,3 16,2 13,0 2 1 10 5 N 1020,5 60 0 0,0
22.05.2017 02:00:00 10,0 6,7 4,9 16,3 13,0 9 5 10 5 ONO 1020,8 60 0 0,0
22.05.2017 01:00:00 10,2 6,9 5,5 16,4 13,0 5 3 8 4 ONO 1021,3 8 0 0,0
22.05.2017 00:00:00 12,1 7,2 6,0 16,4 13,0 4 2 8 5 NO 1021,5 60 0 0,0
21.05.2017 23:00:00 12,6 7,5 6,8 16,5 13,0 2 1 11 6 ONO 1021,6 60 0 0,0
21.05.2017 22:00:00 13,5 7,7 10,5 16,4 13,0 8 4 14 8 NO 1021,5 60 0 0,0
21.05.2017 21:00:00 16,2 8,2 13,7 16,4 13,0 11 6 19 10 NO 1021,4 54 43 0,0
21.05.2017 20:00:00 19,2 7,6 20,5 16,2 13,0 15 8 26 14 ONO 1021,5 59 60 0,0
21.05.2017 19:00:00 20,1 6,1 23,5 16,0 13,0 14 8 23 13 ONO 1021,9 56 60 0,0
21.05.2017 18:00:00 20,4 6,7 24,9 15,7 13,0 14 7 28 15 ONO 1022,3 55 60 0,0
21.05.2017 17:00:00 20,3 6,2 24,9 15,4 13,0 12 7 32 18 ONO 1023,0 58 60 0,0
21.05.2017 16:00:00 19,7 7,4 21,8 15,1 13,0 18 10 36 19 ONO 1023,7 58 60 0,0
21.05.2017 15:00:00 19,9 6,2 25,0 14,8 13,0 11 6 32 18 ONO 1024,3 59 60 0,0
21.05.2017 14:00:00 19,5 7,6 20,0 14,6 13,0 8 4 26 14 O 1024,9 60 56 0,0
21.05.2017 13:00:00 18,7 8,9 21,4 14,4 13,0 12 6 26 14 ONO 1025,6 55 58 0,0
21.05.2017 12:00:00 17,7 7,4 20,3 14,4 13,0 16 8 30 16 O 1026,5 59 60 0,0
21.05.2017 11:00:00 16,4 8,9 21,7 14,4 13,0 15 8 25 14 NO 1026,8 55 60 0,0
21.05.2017 10:00:00 14,8 9,2 19,9 14,4 13,0 3 2 9 5 ZZO 1027,3 54 60 0,0
21.05.2017 09:00:00 10,9 8,8 12,9 14,5 13,0 3 1 8 4 ZZO 1027,9 30 60 0,0
21.05.2017 08:00:00 7,7 7,6 6,4 14,7 13,0 2 1 5 3 ZO 1028,1 1,8 20 0,0
21.05.2017 07:00:00 5,1 5,0 1,6 14,8 13,0 1 1 6 4 NNW 1028,2 0,2 17 0,0
21.05.2017 06:00:00 3,9 3,6 -0,4 15,0 13,0 3 2 5 3 Z 1028,0 7 0 0,0
21.05.2017 05:00:00 4,0 3,7 0,3 15,1 13,0 3 2 7 4 O 1028,0 9 0 0,0
21.05.2017 04:00:00 5,1 4,8 -0,1 15,3 13,0 1 1 7 4 N 1028,0 7 0 0,0
21.05.2017 03:00:00 5,2 4,8 1,4 15,4 13,0 6 4 11 6 OZO 1028,0 10 0 0,0
21.05.2017 02:00:00 6,0 5,4 1,3 15,5 13,0 2 1 7 4 ONO 1027,9 15 0 0,0
21.05.2017 01:00:00 6,8 6,2 2,2 15,6 13,0 3 2 10 6 O 1027,8 27 0 0,0
21.05.2017 00:00:00 7,8 6,6 3,2 15,7 13,0 1 1 6 3 ONO 1027,3 23 0 0,0
20.05.2017 23:00:00 8,5 6,8 4,2 15,7 13,0 5 3 8 4 OZO 1027,1 18 0 0,0
20.05.2017 22:00:00 10,9 7,8 5,8 15,7 13,0 2 1 9 5 OZO 1026,5 50 0 0,0
20.05.2017 21:00:00 14,0 7,7 11,9 15,6 13,0 7 4 12 7 ZZO 1025,8 60 30 0,0
20.05.2017 20:00:00 14,6 6,2 14,3 15,6 13,0 8 4 14 7 ZZO 1025,2 60 0 0,0
20.05.2017 19:00:00 15,8 5,7 16,2 15,5 13,0 10 6 20 11 Z 1024,8 60 0 0,0
20.05.2017 18:00:00 15,4 6,9 16,6 15,4 13,0 11 6 20 11 ZZO 1024,5 60 0 0,0
20.05.2017 17:00:00 16,0 5,3 17,3 15,2 13,0 9 5 18 10 Z 1024,3 60 1 0,0
20.05.2017 16:00:00 16,2 5,5 16,7 15,1 13,0 9 5 24 13 WZW 1023,9 60 7 0,0

tt = temperatuur
td = dauwpunt
tt 5cm = temperatuur 5cm
tt -20cm = temperatuur -20cm
tt -100cm = temperatuur -100cm
ff = windsnelheid
fx = windstoten
dd = windrichting
ppp = luchtdruk
vv = zicht
sd = Zonneschijnduur
rr = neerslag

Weerstations in de omgeving